Weather History for Manhattan, KS

Change the Weather History Date:

Saturday, November 19, 2011

  Actual Average Record
Temperature  
Mean Temperature 45 °F 41 °F  
Max Temperature 62 °F 53 °F 78 °F (2007)
Min Temperature 28 °F 29 °F 15 °F (2014)
Degree Days  
Heating Degree Days 20 24  
Month to date heating degree days 380  
Since 1 July heating degree days 779  
Cooling Degree Days 0 0  
Month to date cooling degree days 0  
Year to date cooling degree days 1361  
Moisture  
Dew Point 35 °F    
Average Humidity 75    
Maximum Humidity 83    
Minimum Humidity 50    
Precipitation  
Precipitation 0.00 in 0.05 in 0.05 in (2005)
Month to date precipitation 1.17  
Year to date precipitation 31.10  
Sea Level Pressure  
Sea Level Pressure 29.82 in    
Wind  
Wind Speed 12 mph (WNW)    
Max Wind Speed 25 mph    
Max Gust Speed 34 mph    
Visibility 10 miles    
Events      
T = Trace of Precipitation, MM = Missing Value Source: NWS Daily Summary

Daily Weather History Graph

Daily Weather History Graph

Search for Another Location

Airport:

Trip Planner

Search our weather history database for the weather conditions in past years. The results will help you decide how hot, cold, wet, or windy it might be!

Date:

Astronomy

Nov. 19, 2011 Rise Set
Actual Time 7:14 AM CST 5:09 PM CST
Civil Twilight 6:45 AM CST 5:38 PM CST
Nautical Twilight 6:12 AM CST 6:11 PM CST
Astronomical Twilight 5:40 AM CST 6:42 PM CST
Moon 12:38 AM CST (11/19) 1:25 PM CST (11/19)
Length of Visible Light 10h 53m
Length of Day
9h 55m
Last Quarter, 38% of the Moon is Illuminated
Nov 19
Last Quarter
Nov 25
New
Dec 2
First Quarter
Dec 10
Full
Dec 17
Last Quarter

Hourly Weather History & Observations

Time (CST) Temp. Windchill Dew Point Humidity Pressure Visibility Wind Dir Wind Speed Gust Speed Precip Events Conditions
12:52 AM 50.0 °F - 42.1 °F 74% 29.61 in 10.0 mi South 11.5 mph - N/A   Clear
1:52 AM 50.0 °F - 44.1 °F 80% 29.57 in 10.0 mi South 11.5 mph 21.9 mph N/A   Clear
2:27 AM 51.8 °F - 46.4 °F 82% 29.57 in 10.0 mi South 12.7 mph 21.9 mph N/A   Mostly Cloudy
2:52 AM 53.1 °F - 46.9 °F 80% 29.56 in 10.0 mi South 15.0 mph 27.6 mph N/A   Overcast
3:52 AM 54.0 °F - 48.0 °F 80% 29.54 in 10.0 mi SSW 12.7 mph 21.9 mph N/A   Overcast
4:52 AM 55.0 °F - 48.9 °F 80% 29.51 in 10.0 mi South 11.5 mph 25.3 mph N/A   Mostly Cloudy
5:52 AM 55.9 °F - 50.0 °F 80% 29.51 in 10.0 mi South 13.8 mph 27.6 mph N/A   Mostly Cloudy
6:04 AM 55.4 °F - 50.0 °F 82% 29.51 in 10.0 mi South 15.0 mph 25.3 mph N/A   Scattered Clouds
6:52 AM 55.0 °F - 50.0 °F 83% 29.51 in 10.0 mi SSW 11.5 mph 23.0 mph N/A   Scattered Clouds
7:52 AM 55.0 °F - 48.9 °F 80% 29.51 in 10.0 mi SSW 11.5 mph - N/A   Partly Cloudy
8:52 AM 57.0 °F - 50.0 °F 77% 29.53 in 10.0 mi SW 21.9 mph 27.6 mph N/A   Clear
9:52 AM 61.0 °F - 46.9 °F 60% 29.53 in 10.0 mi SW 25.3 mph 34.5 mph N/A   Clear
10:52 AM 62.1 °F - 43.0 °F 50% 29.58 in 10.0 mi WSW 20.7 mph 29.9 mph N/A   Clear
11:52 AM 55.9 °F - 41.0 °F 57% 29.65 in 10.0 mi West 18.4 mph 26.5 mph N/A   Clear
12:26 PM 46.4 °F 40.1 °F 37.4 °F 71% 29.70 in 10.0 mi West 15.0 mph 26.5 mph N/A   Mostly Cloudy
12:52 PM 44.1 °F 38.1 °F 36.0 °F 73% 29.74 in 10.0 mi WNW 11.5 mph 21.9 mph N/A   Overcast
1:52 PM 42.1 °F 37.7 °F 33.1 °F 70% 29.80 in 10.0 mi Variable 6.9 mph 17.3 mph N/A   Overcast
2:17 PM 41.0 °F 34.7 °F 32.0 °F 70% 29.81 in 10.0 mi NW 10.4 mph 21.9 mph N/A   Overcast
2:52 PM 39.2 °F 33.0 °F 30.2 °F 70% 29.85 in 10.0 mi NNW 9.2 mph 25.3 mph N/A   Overcast
3:19 PM 37.4 °F 31.4 °F 30.2 °F 75% 29.87 in 10.0 mi NNW 8.1 mph 19.6 mph N/A   Overcast
3:52 PM 37.0 °F 32.4 °F 28.9 °F 73% 29.91 in 10.0 mi NNW 5.8 mph - N/A   Overcast
4:03 PM 37.4 °F 31.4 °F 28.4 °F 70% 29.91 in 10.0 mi NNW 8.1 mph 19.6 mph N/A   Overcast
4:52 PM 35.1 °F 27.9 °F 27.0 °F 72% 29.97 in 10.0 mi NNW 9.2 mph 20.7 mph N/A   Overcast
5:52 PM 34.0 °F 27.2 °F 26.1 °F 73% 30.01 in 10.0 mi NNW 8.1 mph 16.1 mph N/A   Overcast
6:52 PM 33.1 °F 27.7 °F 26.1 °F 75% 30.05 in 10.0 mi North 5.8 mph - N/A   Overcast
7:07 PM 33.8 °F 29.6 °F 26.6 °F 75% 30.05 in 10.0 mi Variable 4.6 mph - N/A   Overcast
7:52 PM 32.0 °F 24.2 °F 25.0 °F 75% 30.10 in 10.0 mi North 9.2 mph - N/A   Overcast
8:52 PM 30.9 °F 24.3 °F 24.1 °F 76% 30.12 in 10.0 mi North 6.9 mph 16.1 mph N/A   Overcast
9:22 PM 30.2 °F 25.4 °F 23.0 °F 75% 30.12 in 10.0 mi North 4.6 mph - N/A   Scattered Clouds
9:31 PM 30.2 °F 24.3 °F 23.0 °F 75% 30.12 in 10.0 mi North 5.8 mph - N/A   Mostly Cloudy
9:42 PM 30.2 °F 25.4 °F 24.8 °F 80% 30.13 in 10.0 mi North 4.6 mph - N/A   Scattered Clouds
9:52 PM 30.0 °F 26.5 °F 23.0 °F 75% 30.15 in 10.0 mi North 3.5 mph - N/A   Scattered Clouds
10:52 PM 28.9 °F 21.9 °F 24.1 °F 82% 30.15 in 10.0 mi North 6.9 mph - N/A   Partly Cloudy
11:17 PM 30.2 °F 21.3 °F 24.8 °F 80% 30.15 in 10.0 mi NNE 10.4 mph - N/A   Mostly Cloudy
11:52 PM 30.9 °F 22.2 °F 25.0 °F 79% 30.17 in 10.0 mi NNE 10.4 mph - N/A   Overcast